START_TIME,STEP,MOV.,P11,t_acc.,P23,t_acc.,P27,t_acc.,A4,t_acc.
1979-08-02 12:00:21.920 ,0,0,3.,4.8,0.,4.8,0.,4.8,0.,4.8
1979-08-02 12:00:26.720 ,0,0,1.,4.8,0.,4.8,0.,4.8,0.,4.8
1979-08-02 12:00:31.520 ,0,0,3.,4.8,0.,4.8,0.,4.8,0.,4.8
1979-08-02 12:00:36.320 ,0,0,2.,4.8,0.,4.8,1.,4.8,0.,4.8
1979-08-02 12:00:41.120 ,0,0,1.,4.8,0.,4.8,0.,4.8,0.,4.8
1979-08-02 12:00:45.920 ,1,0,3.,4.8,0.,4.8,0.,4.8,0.,4.8
1979-08-02 12:00:50.720 ,1,0,4.,4.8,0.,4.8,1.,4.8,0.,4.8
1979-08-02 12:00:55.520 ,1,0,1.,4.8,0.,4.8,0.,4.8,0.,4.8
1979-08-02 12:01:00.320 ,1,0,0.,4.8,0.,4.8,0.,4.8,0.,4.8
1979-08-02 12:01:05.120 ,1,0,3.,4.8,0.,4.8,0.,4.8,0.,4.8
1979-08-02 12:01:09.920 ,1,0,3.,4.8,0.,4.8,0.,4.8,0.,4.8
1979-08-02 12:01:14.720 ,1,0,1.,4.8,0.,4.8,0.,4.8,0.,4.8
1979-08-02 12:01:19.520 ,1,0,5.,4.8,0.,4.8,0.,4.8,0.,4.8
1979-08-02 12:01:24.320 ,1,0,3.,4.8,1.,4.8,0.,4.8,0.,4.8
1979-08-02 12:01:29.120 ,1,0,1.,4.8,0.,4.8,0.,4.8,0.,4.8
1979-08-02 12:01:33.920 ,2,0,4.,4.8,0.,4.8,0.,4.8,0.,4.8
1979-08-02 12:01:38.720 ,2,0,2.,4.8,0.,4.8,0.,4.8,0.,4.8
1979-08-02 12:01:43.520 ,2,0,1.,4.8,0.,4.8,0.,4.8,0.,4.8
1979-08-02 12:01:48.320 ,2,0,1.,4.8,0.,4.8,0.,4.8,0.,4.8
1979-08-02 12:01:53.120 ,2,0,3.,4.8,0.,4.8,0.,4.8,0.,4.8
1979-08-02 12:01:57.920 ,2,0,0.,4.8,0.,4.8,0.,4.8,0.,4.8
1979-08-02 12:02:02.720 ,2,0,0.,4.8,0.,4.8,0.,4.8,0.,4.8
1979-08-02 12:02:07.520 ,2,0,2.,4.8,0.,4.8,0.,4.8,0.,4.8
1979-08-02 12:02:12.320 ,2,0,1.,4.8,0.,4.8,0.,4.8,0.,4.8
1979-08-02 12:02:17.120 ,2,0,0.,4.8,0.,4.8,0.,4.8,0.,4.8
1979-08-02 12:02:21.920 ,3,0,0.,4.8,0.,4.8,0.,4.8,0.,4.8
1979-08-02 12:02:26.720 ,3,0,1.,4.8,0.,4.8,0.,4.8,0.,4.8
1979-08-02 12:02:31.520 ,3,0,3.,4.8,0.,4.8,0.,4.8,0.,4.8
1979-08-02 12:02:36.320 ,3,0,0.,4.8,0.,4.8,0.,4.8,0.,4.8
1979-08-02 12:02:41.120 ,3,0,3.,4.8,0.,4.8,0.,4.8,0.,4.8
1979-08-02 12:02:45.920 ,3,0,0.,4.8,0.,4.8,0.,4.8,0.,4.8
1979-08-02 12:02:50.720 ,3,0,2.,4.8,0.,4.8,0.,4.8,0.,4.8
1979-08-02 12:02:55.520 ,3,0,1.,4.8,0.,4.8,0.,4.8,0.,4.8
1979-08-02 12:03:00.320 ,3,0,1.,4.8,0.,4.8,0.,4.8,0.,4.8
1979-08-02 12:03:05.120 ,3,0,1.,4.8,0.,4.8,0.,4.8,0.,4.8
1979-08-02 12:03:09.920 ,4,0,4.,4.8,0.,4.8,0.,4.8,0.,4.8
1979-08-02 12:03:14.720 ,4,0,2.,4.8,0.,4.8,0.,4.8,0.,4.8
1979-08-02 12:03:19.520 ,4,0,2.,4.8,0.,4.8,0.,4.8,0.,4.8
1979-08-02 12:03:24.320 ,4,0,0.,4.8,0.,4.8,0.,4.8,0.,4.8
1979-08-02 12:03:29.120 ,4,0,1.,4.8,0.,4.8,0.,4.8,0.,4.8
1979-08-02 12:03:33.920 ,4,0,1.,4.8,0.,4.8,0.,4.8,0.,4.8
1979-08-02 12:03:38.720 ,4,0,4.,4.8,0.,4.8,1.,4.8,0.,4.8
1979-08-02 12:03:43.520 ,4,0,2.,4.8,0.,4.8,0.,4.8,0.,4.8
1979-08-02 12:03:48.320 ,4,0,0.,4.8,0.,4.8,1.,4.8,0.,4.8
1979-08-02 12:03:53.120 ,4,0,1.,4.8,0.,4.8,1.,4.8,0.,4.8
1979-08-02 12:03:57.920 ,5,0,0.,4.8,0.,4.8,0.,4.8,0.,4.8
1979-08-02 12:04:02.720 ,5,0,0.,4.8,0.,4.8,0.,4.8,0.,4.8
1979-08-02 12:04:07.520 ,5,0,1.,4.8,0.,4.8,0.,4.8,0.,4.8
1979-08-02 12:04:12.320 ,5,0,2.,4.8,1.,4.8,0.,4.8,0.,4.8
1979-08-02 12:04:17.120 ,5,0,1.,4.8,0.,4.8,1.,4.8,0.,4.8
1979-08-02 12:04:21.920 ,5,0,3.,4.8,0.,4.8,0.,4.8,0.,4.8
1979-08-02 12:04:26.720 ,5,0,2.,4.8,0.,4.8,0.,4.8,0.,4.8
1979-08-02 12:04:31.520 ,5,0,1.,4.8,0.,4.8,1.,4.8,0.,4.8
1979-08-02 12:04:36.320 ,5,0,3.,4.8,0.,4.8,0.,4.8,0.,4.8
1979-08-02 12:04:41.120 ,5,0,2.,4.8,0.,4.8,0.,4.8,0.,4.8
1979-08-02 12:04:45.920 ,6,0,3.,4.8,0.,4.8,0.,4.8,0.,4.8
1979-08-02 12:04:50.720 ,6,0,1.,4.8,1.,4.8,0.,4.8,0.,4.8
1979-08-02 12:04:55.520 ,6,0,1.,4.8,0.,4.8,0.,4.8,0.,4.8
1979-08-02 12:05:00.320 ,6,0,0.,4.8,0.,4.8,0.,4.8,0.,4.8
1979-08-02 12:05:05.120 ,6,0,2.,4.8,0.,4.8,0.,4.8,0.,4.8
1979-08-02 12:05:09.920 ,6,0,1.,4.8,0.,4.8,0.,4.8,0.,4.8
1979-08-02 12:05:14.720 ,6,0,0.,4.8,0.,4.8,0.,4.8,0.,4.8
1979-08-02 12:05:19.520 ,6,0,0.,4.8,0.,4.8,0.,4.8,0.,4.8
1979-08-02 12:05:24.320 ,6,0,0.,4.8,0.,4.8,0.,4.8,0.,4.8
1979-08-02 12:05:29.120 ,6,0,1.,4.8,1.,4.8,1.,4.8,0.,4.8
1979-08-02 12:05:33.920 ,7,0,0.,4.8,0.,4.8,0.,4.8,0.,4.8
1979-08-02 12:05:38.720 ,7,0,2.,4.8,0.,4.8,0.,4.8,0.,4.8
1979-08-02 12:05:43.520 ,7,0,4.,4.8,0.,4.8,0.,4.8,0.,4.8
1979-08-02 12:05:48.320 ,7,0,2.,4.8,0.,4.8,1.,4.8,0.,4.8
1979-08-02 12:05:53.120 ,7,0,1.,4.8,0.,4.8,0.,4.8,0.,4.8
1979-08-02 12:05:57.920 ,7,0,1.,4.8,0.,4.8,0.,4.8,0.,4.8
1979-08-02 12:06:02.720 ,7,0,1.,4.8,0.,4.8,0.,4.8,0.,4.8
1979-08-02 12:06:07.520 ,7,0,2.,4.8,0.,4.8,0.,4.8,0.,4.8
1979-08-02 12:06:12.320 ,7,0,0.,4.8,0.,4.8,0.,4.8,0.,4.8
1979-08-02 12:06:17.120 ,7,0,2.,4.8,0.,4.8,0.,4.8,0.,4.8
1979-08-02 12:06:21.920 ,7,0,1.,4.8,0.,4.8,0.,4.8,0.,4.8
1979-08-02 12:06:26.720 ,7,0,2.,4.8,0.,4.8,0.,4.8,0.,4.8
1979-08-02 12:06:31.520 ,7,0,1.,4.8,0.,4.8,0.,4.8,0.,4.8
1979-08-02 12:06:36.320 ,7,0,2.,4.8,0.,4.8,0.,4.8,0.,4.8
1979-08-02 12:06:41.120 ,7,0,0.,4.8,0.,4.8,0.,4.8,0.,4.8
1979-08-02 12:06:45.920 ,7,0,2.,4.8,0.,4.8,0.,4.8,0.,4.8
1979-08-02 12:06:50.720 ,7,0,0.,4.8,0.,4.8,0.,4.8,0.,4.8
1979-08-02 12:06:55.520 ,7,0,0.,4.8,1.,4.8,0.,4.8,0.,4.8
1979-08-02 12:07:00.320 ,7,0,1.,4.8,0.,4.8,1.,4.8,0.,4.8
1979-08-02 12:07:05.120 ,7,0,1.,4.8,0.,4.8,1.,4.8,0.,4.8
1979-08-02 12:07:09.920 ,6,0,1.,4.8,0.,4.8,0.,4.8,0.,4.8
1979-08-02 12:07:14.720 ,6,0,3.,4.8,0.,4.8,0.,4.8,0.,4.8
1979-08-02 12:07:19.520 ,6,0,3.,4.8,0.,4.8,0.,4.8,0.,4.8
1979-08-02 12:07:24.320 ,6,0,1.,4.8,0.,4.8,0.,4.8,0.,4.8
1979-08-02 12:07:29.120 ,6,0,3.,4.8,0.,4.8,0.,4.8,0.,4.8
1979-08-02 12:07:33.920 ,6,0,3.,4.8,0.,4.8,0.,4.8,0.,4.8
1979-08-02 12:07:38.720 ,6,0,0.,4.8,0.,4.8,0.,4.8,0.,4.8
1979-08-02 12:07:43.520 ,6,0,0.,4.8,0.,4.8,0.,4.8,0.,4.8
1979-08-02 12:07:48.320 ,6,0,1.,4.8,0.,4.8,0.,4.8,0.,4.8
1979-08-02 12:07:53.120 ,6,0,3.,4.8,0.,4.8,0.,4.8,0.,4.8
1979-08-02 12:07:57.920 ,5,0,2.,4.8,0.,4.8,0.,4.8,0.,4.8
1979-08-02 12:08:02.720 ,5,0,2.,4.8,0.,4.8,0.,4.8,0.,4.8
1979-08-02 12:08:07.520 ,5,0,1.,4.8,0.,4.8,0.,4.8,0.,4.8
1979-08-02 12:08:12.320 ,5,0,0.,4.8,0.,4.8,0.,4.8,0.,4.8
1979-08-02 12:08:17.120 ,5,0,1.,4.8,0.,4.8,0.,4.8,0.,4.8
1979-08-02 12:08:21.920 ,5,0,1.,4.8,0.,4.8,0.,4.8,0.,4.8
1979-08-02 12:08:26.720 ,5,0,3.,4.8,0.,4.8,0.,4.8,0.,4.8
1979-08-02 12:08:31.520 ,5,0,3.,4.8,0.,4.8,0.,4.8,0.,4.8
1979-08-02 12:08:36.320 ,5,0,2.,4.8,0.,4.8,0.,4.8,0.,4.8
1979-08-02 12:08:41.120 ,5,0,3.,4.8,0.,4.8,0.,4.8,0.,4.8
1979-08-02 12:08:45.920 ,4,0,1.,4.8,0.,4.8,0.,4.8,0.,4.8
1979-08-02 12:08:50.720 ,4,0,0.,4.8,0.,4.8,0.,4.8,0.,4.8
1979-08-02 12:08:55.520 ,4,0,1.,4.8,0.,4.8,0.,4.8,0.,4.8
1979-08-02 12:09:00.320 ,4,0,0.,4.8,0.,4.8,0.,4.8,0.,4.8
1979-08-02 12:09:05.120 ,4,0,0.,4.8,0.,4.8,0.,4.8,0.,4.8
1979-08-02 12:09:09.920 ,4,0,3.,4.8,0.,4.8,1.,4.8,0.,4.8
1979-08-02 12:09:14.720 ,4,0,1.,4.8,0.,4.8,0.,4.8,0.,4.8
1979-08-02 12:09:19.520 ,4,0,1.,4.8,0.,4.8,1.,4.8,0.,4.8
1979-08-02 12:09:24.320 ,4,0,1.,4.8,0.,4.8,0.,4.8,0.,4.8
1979-08-02 12:09:29.120 ,4,0,1.,4.8,0.,4.8,0.,4.8,0.,4.8
1979-08-02 12:09:33.920 ,3,0,1.,4.8,0.,4.8,0.,4.8,0.,4.8
1979-08-02 12:09:38.720 ,3,0,2.,4.8,0.,4.8,0.,4.8,0.,4.8
1979-08-02 12:09:43.520 ,3,0,3.,4.8,0.,4.8,0.,4.8,0.,4.8
1979-08-02 12:09:48.320 ,3,0,2.,4.8,0.,4.8,0.,4.8,0.,4.8
1979-08-02 12:09:53.120 ,3,0,1.,4.8,0.,4.8,0.,4.8,0.,4.8
1979-08-02 12:09:57.920 ,3,0,,0,,0,,0,,0
1979-08-02 12:10:02.720 ,3,0,2.,4.8,0.,4.8,0.,4.8,0.,4.8
1979-08-02 12:10:07.520 ,3,0,0.,4.8,0.,4.8,1.,4.8,0.,4.8
1979-08-02 12:10:12.320 ,3,0,0.,4.8,0.,4.8,0.,4.8,0.,4.8
1979-08-02 12:10:17.120 ,3,0,3.,4.8,0.,4.8,0.,4.8,0.,4.8
1979-08-02 12:10:21.920 ,2,0,0.,4.8,0.,4.8,0.,4.8,0.,4.8
1979-08-02 12:10:26.720 ,2,0,1.,4.8,0.,4.8,0.,4.8,0.,4.8
1979-08-02 12:10:31.520 ,2,0,3.,4.8,0.,4.8,0.,4.8,0.,4.8
1979-08-02 12:10:36.320 ,2,0,3.,4.8,0.,4.8,0.,4.8,0.,4.8
1979-08-02 12:10:41.120 ,2,0,0.,4.8,0.,4.8,0.,4.8,0.,4.8
1979-08-02 12:10:45.920 ,2,0,2.,4.8,0.,4.8,0.,4.8,0.,4.8
1979-08-02 12:10:50.720 ,2,0,1.,4.8,0.,4.8,0.,4.8,0.,4.8
1979-08-02 12:10:55.520 ,2,0,0.,4.8,0.,4.8,1.,4.8,0.,4.8
1979-08-02 12:11:00.320 ,2,0,2.,4.8,0.,4.8,0.,4.8,0.,4.8
1979-08-02 12:11:05.120 ,2,0,3.,4.8,0.,4.8,0.,4.8,0.,4.8
1979-08-02 12:11:09.920 ,1,0,0.,4.8,0.,4.8,0.,4.8,0.,4.8
1979-08-02 12:11:14.720 ,1,0,2.,4.8,0.,4.8,0.,4.8,0.,4.8
1979-08-02 12:11:19.520 ,1,0,0.,4.8,0.,4.8,1.,4.8,0.,4.8
1979-08-02 12:11:24.320 ,1,0,2.,4.8,0.,4.8,0.,4.8,0.,4.8
1979-08-02 12:11:29.120 ,1,0,0.,4.8,0.,4.8,0.,4.8,0.,4.8
1979-08-02 12:11:33.920 ,1,0,1.,4.8,0.,4.8,0.,4.8,0.,4.8
1979-08-02 12:11:38.720 ,1,0,9.,4.8,0.,4.8,1.,4.8,0.,4.8
1979-08-02 12:11:43.520 ,1,0,3.,4.8,0.,4.8,0.,4.8,0.,4.8
1979-08-02 12:11:48.320 ,1,0,1.,4.8,0.,4.8,0.,4.8,0.,4.8
1979-08-02 12:11:53.120 ,1,0,1.,4.8,0.,4.8,0.,4.8,0.,4.8
1979-08-02 12:11:57.920 ,0,0,3.,4.8,0.,4.8,1.,4.8,0.,4.8
1979-08-02 12:12:02.720 ,0,0,5.,4.8,0.,4.8,0.,4.8,0.,4.8
1979-08-02 12:12:07.520 ,0,0,2.,4.8,0.,4.8,0.,4.8,0.,4.8
1979-08-02 12:12:12.320 ,0,0,1.,4.8,0.,4.8,0.,4.8,0.,4.8
1979-08-02 12:12:17.120 ,0,0,3.,4.8,0.,4.8,0.,4.8,0.,4.8
1979-08-02 12:12:21.920 ,0,0,2.,4.8,0.,4.8,0.,4.8,0.,4.8
1979-08-02 12:12:26.720 ,0,0,5.,4.8,0.,4.8,0.,4.8,0.,4.8
1979-08-02 12:12:31.520 ,0,0,3.,4.8,0.,4.8,0.,4.8,0.,4.8
1979-08-02 12:12:36.320 ,0,0,2.,4.8,0.,4.8,0.,4.8,0.,4.8
1979-08-02 12:12:41.120 ,0,0,2.,4.8,0.,4.8,0.,4.8,0.,4.8
1979-08-02 12:12:45.920 ,0,0,1.,4.8,0.,4.8,0.,4.8,0.,4.8
1979-08-02 12:12:50.720 ,0,0,3.,4.8,0.,4.8,0.,4.8,0.,4.8
1979-08-02 12:12:55.520 ,0,0,0.,4.8,0.,4.8,0.,4.8,0.,4.8
1979-08-02 12:13:00.320 ,0,0,1.,4.8,0.,4.8,0.,4.8,0.,4.8
1979-08-02 12:13:05.120 ,0,0,2.,4.8,0.,4.8,1.,4.8,0.,4.8
1979-08-02 12:13:09.920 ,0,0,2.,4.8,0.,4.8,0.,4.8,0.,4.8
1979-08-02 12:13:14.720 ,0,0,1.,4.8,0.,4.8,0.,4.8,0.,4.8
1979-08-02 12:13:19.520 ,0,0,3.,4.8,0.,4.8,0.,4.8,0.,4.8
1979-08-02 12:13:24.320 ,0,0,3.,4.8,0.,4.8,0.,4.8,0.,4.8
1979-08-02 12:13:29.120 ,0,0,3.,4.8,0.,4.8,0.,4.8,0.,4.8
1979-08-02 12:13:33.910 ,1,0,0.,4.8,0.,4.8,1.,4.8,0.,4.8
1979-08-02 12:13:38.720 ,1,0,2.,4.8,0.,4.8,0.,4.8,0.,4.8
1979-08-02 12:13:43.520 ,1,0,2.,4.8,0.,4.8,0.,4.8,0.,4.8
1979-08-02 12:13:48.320 ,1,0,1.,4.8,0.,4.8,1.,4.8,0.,4.8
1979-08-02 12:13:53.110 ,1,0,1.,4.8,0.,4.8,0.,4.8,0.,4.8
1979-08-02 12:13:57.910 ,1,0,1.,4.8,0.,4.8,0.,4.8,0.,4.8
1979-08-02 12:14:02.720 ,1,0,1.,4.8,0.,4.8,0.,4.8,0.,4.8
1979-08-02 12:14:07.520 ,1,0,0.,4.8,0.,4.8,0.,4.8,0.,4.8
1979-08-02 12:14:12.320 ,1,0,0.,4.8,0.,4.8,0.,4.8,0.,4.8
1979-08-02 12:14:17.110 ,1,0,2.,4.8,0.,4.8,0.,4.8,0.,4.8
1979-08-02 12:14:21.910 ,2,0,0.,4.8,0.,4.8,0.,4.8,0.,4.8
1979-08-02 12:14:26.720 ,2,0,1.,4.8,0.,4.8,0.,4.8,0.,4.8
1979-08-02 12:14:31.520 ,2,0,2.,4.8,0.,4.8,0.,4.8,0.,4.8
1979-08-02 12:14:36.320 ,2,0,3.,4.8,0.,4.8,0.,4.8,0.,4.8
1979-08-02 12:14:41.110 ,2,0,2.,4.8,0.,4.8,0.,4.8,0.,4.8
1979-08-02 12:14:45.910 ,2,0,1.,4.8,0.,4.8,0.,4.8,0.,4.8
1979-08-02 12:14:50.720 ,2,0,4.,4.8,0.,4.8,0.,4.8,0.,4.8
1979-08-02 12:14:55.520 ,2,0,2.,4.8,0.,4.8,0.,4.8,0.,4.8
1979-08-02 12:15:00.320 ,2,0,2.,4.8,0.,4.8,0.,4.8,0.,4.8
1979-08-02 12:15:05.110 ,2,0,2.,4.8,0.,4.8,0.,4.8,0.,4.8
1979-08-02 12:15:09.910 ,3,0,0.,4.8,0.,4.8,0.,4.8,0.,4.8
1979-08-02 12:15:14.720 ,3,0,4.,4.8,0.,4.8,0.,4.8,0.,4.8
1979-08-02 12:15:19.520 ,3,0,3.,4.8,0.,4.8,0.,4.8,0.,4.8
1979-08-02 12:15:24.320 ,3,0,1.,4.8,0.,4.8,0.,4.8,0.,4.8
1979-08-02 12:15:29.110 ,3,0,1.,4.8,0.,4.8,0.,4.8,0.,4.8
1979-08-02 12:15:33.910 ,3,0,3.,4.8,0.,4.8,0.,4.8,0.,4.8
1979-08-02 12:15:38.720 ,3,0,1.,4.8,0.,4.8,0.,4.8,0.,4.8
1979-08-02 12:15:43.520 ,3,0,1.,4.8,0.,4.8,1.,4.8,0.,4.8
1979-08-02 12:15:48.320 ,3,0,5.,4.8,0.,4.8,0.,4.8,0.,4.8
1979-08-02 12:15:53.110 ,3,0,1.,4.8,0.,4.8,0.,4.8,0.,4.8
1979-08-02 12:15:57.910 ,4,0,1.,4.8,0.,4.8,0.,4.8,0.,4.8
1979-08-02 12:16:02.720 ,4,0,0.,4.8,0.,4.8,0.,4.8,0.,4.8
1979-08-02 12:16:07.520 ,4,0,3.,4.8,0.,4.8,0.,4.8,0.,4.8
1979-08-02 12:16:12.320 ,4,0,2.,4.8,0.,4.8,0.,4.8,0.,4.8
1979-08-02 12:16:17.110 ,4,0,1.,4.8,0.,4.8,0.,4.8,0.,4.8
1979-08-02 12:16:21.910 ,4,0,0.,4.8,0.,4.8,0.,4.8,0.,4.8
1979-08-02 12:16:26.720 ,4,0,4.,4.8,0.,4.8,0.,4.8,0.,4.8
1979-08-02 12:16:31.520 ,4,0,2.,4.8,0.,4.8,0.,4.8,0.,4.8
1979-08-02 12:16:36.320 ,4,0,3.,4.8,0.,4.8,0.,4.8,0.,4.8
1979-08-02 12:16:41.110 ,4,0,2.,4.8,0.,4.8,0.,4.8,0.,4.8
1979-08-02 12:16:45.910 ,5,0,2.,4.8,0.,4.8,0.,4.8,0.,4.8
1979-08-02 12:16:50.720 ,5,0,2.,4.8,0.,4.8,0.,4.8,0.,4.8
1979-08-02 12:16:55.520 ,5,0,0.,4.8,0.,4.8,0.,4.8,0.,4.8
1979-08-02 12:17:00.320 ,5,0,1.,4.8,0.,4.8,0.,4.8,0.,4.8
1979-08-02 12:17:05.110 ,5,0,2.,4.8,0.,4.8,0.,4.8,0.,4.8
1979-08-02 12:17:09.910 ,5,0,0.,4.8,0.,4.8,0.,4.8,0.,4.8
1979-08-02 12:17:14.710 ,5,0,3.,4.8,0.,4.8,0.,4.8,0.,4.8
1979-08-02 12:17:19.510 ,5,0,1.,4.8,0.,4.8,0.,4.8,0.,4.8
1979-08-02 12:17:24.310 ,5,0,3.,4.8,0.,4.8,0.,4.8,0.,4.8
1979-08-02 12:17:29.110 ,5,0,1.,4.8,0.,4.8,0.,4.8,0.,4.8
1979-08-02 12:17:33.910 ,6,0,2.,4.8,0.,4.8,1.,4.8,0.,4.8
1979-08-02 12:17:38.710 ,6,0,4.,4.8,0.,4.8,1.,4.8,0.,4.8
1979-08-02 12:17:43.510 ,6,0,2.,4.8,0.,4.8,0.,4.8,0.,4.8
1979-08-02 12:17:48.310 ,6,0,1.,4.8,0.,4.8,0.,4.8,0.,4.8
1979-08-02 12:17:53.110 ,6,0,0.,4.8,0.,4.8,0.,4.8,0.,4.8
1979-08-02 12:17:57.910 ,6,0,3.,4.8,0.,4.8,0.,4.8,0.,4.8
1979-08-02 12:18:02.710 ,6,0,1.,4.8,0.,4.8,0.,4.8,0.,4.8
1979-08-02 12:18:07.510 ,6,0,4.,4.8,0.,4.8,0.,4.8,0.,4.8
1979-08-02 12:18:12.310 ,6,0,3.,4.8,0.,4.8,0.,4.8,0.,4.8
1979-08-02 12:18:17.110 ,6,0,2.,4.8,0.,4.8,0.,4.8,0.,4.8
1979-08-02 12:18:21.910 ,7,0,3.,4.8,0.,4.8,0.,4.8,0.,4.8
1979-08-02 12:18:26.710 ,7,0,2.,4.8,0.,4.8,0.,4.8,0.,4.8
1979-08-02 12:18:31.510 ,7,0,1.,4.8,0.,4.8,0.,4.8,0.,4.8
1979-08-02 12:18:36.310 ,7,0,2.,4.8,0.,4.8,1.,4.8,0.,4.8
1979-08-02 12:18:41.110 ,7,0,2.,4.8,0.,4.8,1.,4.8,0.,4.8
1979-08-02 12:18:45.910 ,7,0,0.,4.8,0.,4.8,0.,4.8,0.,4.8
1979-08-02 12:18:50.710 ,7,0,2.,4.8,0.,4.8,0.,4.8,0.,4.8
1979-08-02 12:18:55.510 ,7,0,0.,4.8,0.,4.8,0.,4.8,0.,4.8
1979-08-02 12:19:00.310 ,7,0,1.,4.8,0.,4.8,0.,4.8,0.,4.8
1979-08-02 12:19:05.110 ,7,0,0.,4.8,0.,4.8,0.,4.8,0.,4.8
1979-08-02 12:19:09.910 ,3,1,0.,4.8,0.,4.8,0.,4.8,0.,4.8
1979-08-02 12:19:14.710 ,3,1,3.,4.8,0.,4.8,0.,4.8,0.,4.8
1979-08-02 12:19:19.510 ,3,1,2.,4.8,0.,4.8,1.,4.8,0.,4.8
1979-08-02 12:19:24.310 ,3,1,2.,4.8,0.,4.8,0.,4.8,0.,4.8
1979-08-02 12:19:29.110 ,3,1,4.,4.8,0.,4.8,1.,4.8,0.,4.8
1979-08-02 12:19:33.910 ,0,1,0.,4.8,0.,4.8,1.,4.8,0.,4.8
1979-08-02 12:19:38.710 ,0,1,5.,4.8,0.,4.8,0.,4.8,0.,4.8
1979-08-02 12:19:43.510 ,0,1,1.,4.8,0.,4.8,0.,4.8,0.,4.8
1979-08-02 12:19:48.310 ,0,1,3.,4.8,0.,4.8,0.,4.8,0.,4.8
1979-08-02 12:19:53.110 ,0,1,2.,4.8,0.,4.8,0.,4.8,0.,4.8
1979-08-02 12:19:57.910 ,4,1,1.,4.8,0.,4.8,0.,4.8,0.,4.8
1979-08-02 12:20:02.710 ,4,1,1.,4.8,0.,4.8,0.,4.8,0.,4.8
1979-08-02 12:20:07.510 ,4,1,3.,4.8,0.,4.8,0.,4.8,0.,4.8
1979-08-02 12:20:12.310 ,4,1,1.,4.8,0.,4.8,0.,4.8,0.,4.8
1979-08-02 12:20:17.110 ,4,1,1.,4.8,0.,4.8,0.,4.8,0.,4.8
1979-08-02 12:20:21.910 ,7,1,1.,4.8,0.,4.8,0.,4.8,0.,4.8
1979-08-02 12:20:26.710 ,7,1,1.,4.8,1.,4.8,0.,4.8,0.,4.8
1979-08-02 12:20:31.510 ,7,1,2.,4.8,0.,4.8,1.,4.8,0.,4.8
1979-08-02 12:20:36.310 ,7,1,1.,4.8,0.,4.8,0.,4.8,0.,4.8
1979-08-02 12:20:41.110 ,7,1,2.,4.8,0.,4.8,0.,4.8,0.,4.8
1979-08-02 12:20:45.910 ,3,1,2.,4.8,0.,4.8,0.,4.8,0.,4.8
1979-08-02 12:20:50.710 ,3,1,2.,4.8,0.,4.8,0.,4.8,0.,4.8
1979-08-02 12:20:55.510 ,3,1,1.,4.8,0.,4.8,0.,4.8,0.,4.8
1979-08-02 12:21:00.310 ,3,1,,0,,0,,0,,0
1979-08-02 12:21:05.110 ,3,1,1.,4.8,0.,4.8,0.,4.8,0.,4.8
1979-08-02 12:21:09.910 ,0,1,3.,4.8,0.,4.8,0.,4.8,0.,4.8
1979-08-02 12:21:14.710 ,0,1,6.,4.8,0.,4.8,0.,4.8,0.,4.8
1979-08-02 12:21:19.510 ,0,1,6.,4.8,0.,4.8,0.,4.8,0.,4.8
1979-08-02 12:21:24.310 ,0,1,1.,4.8,0.,4.8,0.,4.8,0.,4.8
1979-08-02 12:21:29.110 ,0,1,2.,4.8,0.,4.8,0.,4.8,0.,4.8
1979-08-02 12:21:33.910 ,4,1,2.,4.8,0.,4.8,0.,4.8,0.,4.8
1979-08-02 12:21:38.710 ,4,1,0.,4.8,0.,4.8,0.,4.8,0.,4.8
1979-08-02 12:21:43.510 ,4,1,1.,4.8,0.,4.8,1.,4.8,0.,4.8
1979-08-02 12:21:48.310 ,4,1,0.,4.8,0.,4.8,1.,4.8,0.,4.8
1979-08-02 12:21:53.110 ,4,1,0.,4.8,0.,4.8,0.,4.8,0.,4.8
1979-08-02 12:21:57.910 ,7,1,1.,4.8,0.,4.8,1.,4.8,0.,4.8
1979-08-02 12:22:02.710 ,7,1,3.,4.8,0.,4.8,0.,4.8,0.,4.8
1979-08-02 12:22:07.510 ,7,1,2.,4.8,0.,4.8,0.,4.8,0.,4.8
1979-08-02 12:22:12.310 ,7,1,1.,4.8,0.,4.8,0.,4.8,0.,4.8
1979-08-02 12:22:17.110 ,7,1,1.,4.8,0.,4.8,1.,4.8,0.,4.8
1979-08-02 12:22:21.910 ,3,1,0.,4.8,1.,4.8,0.,4.8,0.,4.8
1979-08-02 12:22:26.710 ,3,1,2.,4.8,0.,4.8,0.,4.8,0.,4.8
1979-08-02 12:22:31.510 ,3,1,3.,4.8,0.,4.8,1.,4.8,0.,4.8
1979-08-02 12:22:36.310 ,3,1,4.,4.8,0.,4.8,0.,4.8,0.,4.8
1979-08-02 12:22:41.110 ,3,1,3.,4.8,0.,4.8,0.,4.8,0.,4.8
1979-08-02 12:22:45.910 ,0,1,3.,4.8,0.,4.8,1.,4.8,0.,4.8
1979-08-02 12:22:50.710 ,0,1,1.,4.8,0.,4.8,0.,4.8,0.,4.8
1979-08-02 12:22:55.510 ,0,1,2.,4.8,0.,4.8,0.,4.8,0.,4.8
1979-08-02 12:23:00.310 ,0,1,1.,4.8,0.,4.8,0.,4.8,0.,4.8
1979-08-02 12:23:05.110 ,0,1,3.,4.8,1.,4.8,0.,4.8,0.,4.8
1979-08-02 12:23:09.910 ,4,1,3.,4.8,0.,4.8,0.,4.8,0.,4.8
1979-08-02 12:23:14.710 ,4,1,1.,4.8,0.,4.8,0.,4.8,0.,4.8
1979-08-02 12:23:19.510 ,4,1,0.,4.8,1.,4.8,0.,4.8,0.,4.8
1979-08-02 12:23:24.310 ,4,1,1.,4.8,0.,4.8,0.,4.8,0.,4.8
1979-08-02 12:23:29.110 ,4,1,3.,4.8,0.,4.8,0.,4.8,0.,4.8
1979-08-02 12:23:33.910 ,7,1,3.,4.8,0.,4.8,0.,4.8,0.,4.8
1979-08-02 12:23:38.710 ,7,1,1.,4.8,0.,4.8,0.,4.8,0.,4.8
1979-08-02 12:23:43.510 ,7,1,1.,4.8,0.,4.8,1.,4.8,0.,4.8
1979-08-02 12:23:48.310 ,7,1,0.,4.8,0.,4.8,0.,4.8,0.,4.8
1979-08-02 12:23:53.110 ,7,1,2.,4.8,0.,4.8,0.,4.8,0.,4.8
1979-08-02 12:23:57.910 ,3,1,0.,4.8,0.,4.8,0.,4.8,0.,4.8
1979-08-02 12:24:02.710 ,3,1,3.,4.8,0.,4.8,0.,4.8,0.,4.8
1979-08-02 12:24:07.510 ,3,1,1.,4.8,0.,4.8,0.,4.8,0.,4.8
1979-08-02 12:24:12.310 ,3,1,2.,4.8,0.,4.8,0.,4.8,0.,4.8
1979-08-02 12:24:17.110 ,3,1,2.,4.8,0.,4.8,0.,4.8,0.,4.8
1979-08-02 12:24:21.910 ,0,1,3.,4.8,0.,4.8,0.,4.8,0.,4.8
1979-08-02 12:24:26.710 ,0,1,0.,4.8,0.,4.8,0.,4.8,0.,4.8
1979-08-02 12:24:31.510 ,0,1,1.,4.8,0.,4.8,0.,4.8,0.,4.8
1979-08-02 12:24:36.310 ,0,1,2.,4.8,0.,4.8,0.,4.8,0.,4.8
1979-08-02 12:24:41.110 ,0,1,1.,4.8,0.,4.8,0.,4.8,0.,4.8
1979-08-02 12:24:45.910 ,4,1,1.,4.8,0.,4.8,0.,4.8,0.,4.8
1979-08-02 12:24:50.710 ,4,1,3.,4.8,0.,4.8,0.,4.8,0.,4.8
1979-08-02 12:24:55.510 ,4,1,1.,4.8,1.,4.8,0.,4.8,0.,4.8
1979-08-02 12:25:00.310 ,4,1,1.,4.8,0.,4.8,0.,4.8,0.,4.8
1979-08-02 12:25:05.110 ,4,1,2.,4.8,0.,4.8,0.,4.8,0.,4.8
1979-08-02 12:25:09.910 ,7,1,5.,4.8,0.,4.8,0.,4.8,0.,4.8
1979-08-02 12:25:14.710 ,7,1,1.,4.8,0.,4.8,0.,4.8,0.,4.8
1979-08-02 12:25:19.510 ,7,1,2.,4.8,0.,4.8,1.,4.8,0.,4.8
1979-08-02 12:25:24.310 ,7,1,3.,4.8,0.,4.8,0.,4.8,0.,4.8
1979-08-02 12:25:29.110 ,7,1,2.,4.8,0.,4.8,0.,4.8,0.,4.8
1979-08-02 12:25:33.910 ,3,1,0.,4.8,0.,4.8,0.,4.8,0.,4.8
1979-08-02 12:25:38.710 ,3,1,1.,4.8,0.,4.8,0.,4.8,0.,4.8
1979-08-02 12:25:43.510 ,3,1,2.,4.8,0.,4.8,0.,4.8,0.,4.8
1979-08-02 12:25:48.310 ,3,1,2.,4.8,0.,4.8,2.,4.8,0.,4.8
1979-08-02 12:25:53.110 ,3,1,1.,4.8,0.,4.8,0.,4.8,0.,4.8
1979-08-02 12:25:57.910 ,0,1,1.,4.8,0.,4.8,0.,4.8,0.,4.8
1979-08-02 12:26:02.710 ,0,1,0.,4.8,0.,4.8,0.,4.8,0.,4.8
1979-08-02 12:26:07.510 ,0,1,1.,4.8,0.,4.8,0.,4.8,0.,4.8
1979-08-02 12:26:12.310 ,0,1,2.,4.8,0.,4.8,0.,4.8,0.,4.8
1979-08-02 12:26:17.110 ,0,1,0.,4.8,0.,4.8,1.,4.8,0.,4.8
1979-08-02 12:26:21.910 ,4,1,2.,4.8,0.,4.8,0.,4.8,0.,4.8
1979-08-02 12:26:26.710 ,4,1,1.,4.8,0.,4.8,1.,4.8,0.,4.8
1979-08-02 12:26:31.510 ,4,1,4.,4.8,0.,4.8,1.,4.8,0.,4.8
1979-08-02 12:26:36.310 ,4,1,1.,4.8,0.,4.8,0.,4.8,0.,4.8
1979-08-02 12:26:41.110 ,4,1,3.,4.8,0.,4.8,0.,4.8,0.,4.8
1979-08-02 12:26:45.910 ,7,1,1.,4.8,1.,4.8,0.,4.8,0.,4.8
1979-08-02 12:26:50.710 ,7,1,3.,4.8,0.,4.8,1.,4.8,0.,4.8
1979-08-02 12:26:55.510 ,7,1,1.,4.8,0.,4.8,0.,4.8,0.,4.8
1979-08-02 12:27:00.310 ,7,1,1.,4.8,0.,4.8,0.,4.8,0.,4.8
1979-08-02 12:27:05.110 ,7,1,0.,4.8,0.,4.8,0.,4.8,0.,4.8
1979-08-02 12:27:09.910 ,3,1,1.,4.8,0.,4.8,0.,4.8,0.,4.8
1979-08-02 12:27:14.710 ,3,1,0.,4.8,0.,4.8,0.,4.8,0.,4.8
1979-08-02 12:27:19.510 ,3,1,1.,4.8,0.,4.8,0.,4.8,0.,4.8
1979-08-02 12:27:24.310 ,3,1,2.,4.8,0.,4.8,0.,4.8,0.,4.8
1979-08-02 12:27:29.110 ,3,1,3.,4.8,0.,4.8,0.,4.8,0.,4.8
1979-08-02 12:27:33.910 ,0,1,2.,4.8,1.,4.8,0.,4.8,0.,4.8
1979-08-02 12:27:38.710 ,0,1,0.,4.8,0.,4.8,0.,4.8,0.,4.8
1979-08-02 12:27:43.510 ,0,1,2.,4.8,0.,4.8,1.,4.8,0.,4.8
1979-08-02 12:27:48.310 ,0,1,3.,4.8,0.,4.8,0.,4.8,0.,4.8
1979-08-02 12:27:53.110 ,0,1,4.,4.8,0.,4.8,0.,4.8,0.,4.8
1979-08-02 12:27:57.910 ,4,1,2.,4.8,0.,4.8,0.,4.8,0.,4.8
1979-08-02 12:28:02.710 ,4,1,4.,4.8,0.,4.8,2.,4.8,0.,4.8
1979-08-02 12:28:07.510 ,4,1,3.,4.8,0.,4.8,0.,4.8,0.,4.8
1979-08-02 12:28:12.310 ,4,1,1.,4.8,0.,4.8,0.,4.8,0.,4.8
1979-08-02 12:28:17.110 ,4,1,3.,4.8,0.,4.8,0.,4.8,0.,4.8
1979-08-02 12:28:21.910 ,7,1,1.,4.8,0.,4.8,0.,4.8,0.,4.8
1979-08-02 12:28:26.710 ,7,1,1.,4.8,0.,4.8,0.,4.8,0.,4.8
1979-08-02 12:28:31.510 ,7,1,0.,4.8,0.,4.8,0.,4.8,0.,4.8
1979-08-02 12:28:36.310 ,7,1,1.,4.8,0.,4.8,0.,4.8,0.,4.8
1979-08-02 12:28:41.110 ,7,1,3.,4.8,0.,4.8,0.,4.8,0.,4.8
1979-08-02 12:28:45.910 ,3,1,0.,4.8,0.,4.8,0.,4.8,0.,4.8
1979-08-02 12:28:50.710 ,3,1,0.,4.8,0.,4.8,0.,4.8,0.,4.8
1979-08-02 12:28:55.510 ,3,1,1.,4.8,0.,4.8,0.,4.8,0.,4.8
1979-08-02 12:29:00.310 ,3,1,3.,4.8,0.,4.8,0.,4.8,0.,4.8
1979-08-02 12:29:05.110 ,3,1,1.,4.8,0.,4.8,0.,4.8,0.,4.8
1979-08-02 12:29:09.910 ,0,1,1.,4.8,0.,4.8,0.,4.8,0.,4.8
1979-08-02 12:29:14.710 ,0,1,2.,4.8,0.,4.8,0.,4.8,0.,4.8
1979-08-02 12:29:19.510 ,0,1,6.,4.8,0.,4.8,0.,4.8,0.,4.8
1979-08-02 12:29:24.310 ,0,1,3.,4.8,0.,4.8,2.,4.8,0.,4.8
1979-08-02 12:29:29.110 ,0,1,1.,4.8,0.,4.8,1.,4.8,0.,4.8
1979-08-02 12:29:33.910 ,0,0,3.,4.8,0.,4.8,0.,4.8,0.,4.8
1979-08-02 12:29:38.710 ,0,0,2.,4.8,0.,4.8,0.,4.8,0.,4.8
1979-08-02 12:29:43.510 ,0,0,3.,4.8,0.,4.8,0.,4.8,0.,4.8
1979-08-02 12:29:48.310 ,0,0,0.,4.8,0.,4.8,0.,4.8,0.,4.8
1979-08-02 12:29:53.110 ,0,0,0.,4.8,0.,4.8,0.,4.8,0.,4.8
1979-08-02 12:29:57.910 ,0,0,2.,4.8,0.,4.8,0.,4.8,0.,4.8
1979-08-02 12:30:02.710 ,0,0,2.,4.8,0.,4.8,0.,4.8,0.,4.8
1979-08-02 12:30:07.510 ,0,0,2.,4.8,0.,4.8,0.,4.8,0.,4.8
1979-08-02 12:30:12.310 ,0,0,0.,4.8,0.,4.8,0.,4.8,0.,4.8
1979-08-02 12:30:17.110 ,0,0,2.,4.8,0.,4.8,0.,4.8,0.,4.8
1979-08-02 12:30:21.910 ,5,0,0.,4.8,0.,4.8,0.,4.8,0.,4.8
1979-08-02 12:30:26.710 ,5,0,1.,4.8,0.,4.8,0.,4.8,0.,4.8
1979-08-02 12:30:31.510 ,5,0,1.,4.8,0.,4.8,0.,4.8,0.,4.8
1979-08-02 12:30:36.310 ,5,0,0.,4.8,0.,4.8,0.,4.8,0.,4.8
1979-08-02 12:30:41.110 ,5,0,4.,4.8,0.,4.8,0.,4.8,0.,4.8
1979-08-02 12:30:45.910 ,5,0,2.,4.8,0.,4.8,0.,4.8,0.,4.8
1979-08-02 12:30:50.710 ,5,0,1.,4.8,0.,4.8,0.,4.8,0.,4.8
1979-08-02 12:30:55.510 ,5,0,2.,4.8,0.,4.8,0.,4.8,0.,4.8
1979-08-02 12:31:00.310 ,5,0,3.,4.8,0.,4.8,0.,4.8,0.,4.8
1979-08-02 12:31:05.110 ,5,0,4.,4.8,0.,4.8,0.,4.8,1.,4.8
1979-08-02 12:31:09.910 ,4,0,0.,4.8,0.,4.8,1.,4.8,0.,4.8
1979-08-02 12:31:14.710 ,4,0,4.,4.8,0.,4.8,0.,4.8,0.,4.8
1979-08-02 12:31:19.510 ,4,0,0.,4.8,0.,4.8,0.,4.8,0.,4.8
1979-08-02 12:31:24.310 ,4,0,2.,4.8,0.,4.8,0.,4.8,0.,4.8
1979-08-02 12:31:29.110 ,4,0,1.,4.8,0.,4.8,0.,4.8,0.,4.8
1979-08-02 12:31:33.910 ,4,0,2.,4.8,0.,4.8,1.,4.8,0.,4.8
1979-08-02 12:31:38.710 ,4,0,0.,4.8,0.,4.8,0.,4.8,0.,4.8
1979-08-02 12:31:43.510 ,4,0,1.,4.8,0.,4.8,0.,4.8,0.,4.8
1979-08-02 12:31:48.310 ,4,0,2.,4.8,0.,4.8,0.,4.8,0.,4.8
1979-08-02 12:31:53.110 ,4,0,0.,4.8,0.,4.8,0.,4.8,0.,4.8
1979-08-02 12:31:57.910 ,3,0,4.,4.8,0.,4.8,0.,4.8,0.,4.8
1979-08-02 12:32:02.710 ,3,0,1.,4.8,0.,4.8,0.,4.8,0.,4.8
1979-08-02 12:32:07.510 ,3,0,2.,4.8,0.,4.8,0.,4.8,0.,4.8
1979-08-02 12:32:12.310 ,3,0,1.,4.8,0.,4.8,0.,4.8,0.,4.8
1979-08-02 12:32:17.110 ,3,0,1.,4.8,0.,4.8,0.,4.8,0.,4.8
1979-08-02 12:32:21.910 ,3,0,2.,4.8,0.,4.8,0.,4.8,0.,4.8
1979-08-02 12:32:26.710 ,3,0,8.,4.8,0.,4.8,0.,4.8,0.,4.8
1979-08-02 12:32:31.510 ,3,0,2.,4.8,0.,4.8,0.,4.8,0.,4.8
1979-08-02 12:32:36.310 ,3,0,1.,4.8,0.,4.8,0.,4.8,0.,4.8
1979-08-02 12:32:41.110 ,3,0,0.,4.8,0.,4.8,0.,4.8,0.,4.8
1979-08-02 12:33:33.910 ,0,0,,0,,0,,0,,0
1979-08-02 12:33:38.710 ,0,0,,0,,0,,0,,0
1979-08-02 12:33:43.510 ,0,0,1.,4.8,0.,4.8,0.,4.8,0.,4.8
1979-08-02 12:33:48.310 ,0,0,2.,4.8,0.,4.8,0.,4.8,0.,4.8
1979-08-02 12:33:53.110 ,0,0,0.,4.8,0.,4.8,0.,4.8,0.,4.8
1979-08-02 12:33:57.910 ,0,0,1.,4.8,0.,4.8,0.,4.8,0.,4.8
1979-08-02 12:34:02.710 ,0,0,2.,4.8,0.,4.8,0.,4.8,0.,4.8
1979-08-02 12:34:07.510 ,0,0,2.,4.8,0.,4.8,0.,4.8,0.,4.8